Temperature
7 5 5 6 6 7 6 6 6 7 7 7 6 7 7 7 7 7 8 8 8 9 10 10 10 10 10 10 10 10 10 9 9 9 9 9 9 9 8 8 8 8 8 8
5 5 6 6 6 6 6 6 6 7 7 7 6 6 7 7 6 7 7 8 8 9 9 9 9 9 9 10 10 9 9 9 9 9 9 9 9 8 8 8 8 8 8 8
5 6 6 6 6 6 5 6 6 6 6 6 6 6 7 7 7 7 8 8 8 8 9 9 9 9 9 9 9 9 9 9 9 8 8 8 8 8 8 8 8 8 7 7
5 5 6 6 6 6 6 6 6 6 5 5 5 5 6 6 6 6 7 7 8 8 8 9 9 9 9 9 9 9 9 9 8 8 8 8 8 8 8 8 8 8 7 7
5 5 5 5 6 6 5 6 5 5 5 4 4 4 6 6 6 6 6 7 7 8 8 8 9 9 9 9 9 9 9 8 8 8 8 8 8 8 8 8 7 7 7 7
4 5 5 5 6 6 5 5 4 3 3 4 4 4 5 5 6 6 6 7 7 8 8 8 8 8 8 8 8 8 8 8 8 8 8 8 8 7 7 7 7 7 7 7
4 5 5 5 5 5 5 4 4 4 3 4 4 4 5 6 6 6 6 7 7 8 8 8 8 8 8 8 8 8 8 8 8 8 8 7 7 7 7 7 7 7 7 7
4 4 4 4 5 4 4 4 4 5 4 4 4 4 5 6 6 6 6 6 7 7 7 7 7 8 8 8 8 8 8 8 8 7 7 7 7 7 7 7 7 6 6 6
3 3 4 4 4 4 4 3 4 3 3 3 3 3 4 5 5 5 5 6 6 6 6 7 7 7 7 7 8 8 8 7 7 7 7 7 6 6 6 6 6 6 6 6
3 2 3 4 4 4 4 3 2 3 4 4 4 4 4 5 5 5 4 5 5 6 6 6 6 7 7 7 7 7 7 7 7 7 7 6 6 6 6 6 6 6 5 5
2 2 2 3 3 3 3 3 3 2 2 3 4 5 5 5 5 5 4 5 5 6 6 6 6 6 6 6 6 7 7 6 6 6 6 6 6 6 6 5 5 5 5 5
2 1 1 2 2 3 3 2 2 3 2 1 2 4 5 4 4 4 4 5 6 6 5 5 6 6 6 6 6 6 6 6 6 6 5 5 5 5 5 5 5 5 5 4
1 1 1 2 2 2 2 2 2 1 1 1 2 4 4 4 4 4 4 5 5 5 5 5 5 5 5 5 5 5 6 5 5 5 5 5 5 5 5 5 5 4 4 4
2 1 1 2 2 1 1 1 1 1 1 1 2 3 4 4 4 4 4 5 5 5 5 5 5 5 5 5 5 5 5 5 5 5 5 5 4 4 4 4 4 4 4 4
1 0 -0 0 1 1 1 1 1 1 1 1 2 2 3 3 3 4 4 4 4 4 4 4 4 4 4 4 4 4 4 4 4 4 4 4 4 4 4 4 4 3 3 3
0 0 -0 -0 1 1 1 1 1 1 1 1 1 2 3 3 3 3 3 3 4 4 4 4 4 4 4 4 4 4 4 4 4 4 4 4 3 3 3 3 3 3 3 3
-1 -1 -0 0 -0 0 1 1 1 0 0 1 2 3 3 2 2 2 3 3 4 4 4 4 4 4 4 4 4 4 4 4 3 3 3 3 3 3 3 3 2 2 2 2
-1 -1 -1 -1 -1 1 2 1 1 1 1 0 1 1 2 2 3 3 3 4 4 4 4 4 4 3 3 3 3 3 3 3 3 3 3 3 3 2 2 2 2 2 2 2
-1 -1 -2 -1 -1 -0 1 1 1 1 1 1 1 1 1 2 2 2 4 4 4 4 4 3 3 3 3 3 3 3 3 3 3 3 2 2 2 2 2 2 2 1 1 1
-2 -1 -1 -2 -1 0 2 2 1 1 2 2 1 1 1 1 1 2 3 3 3 3 3 3 3 3 3 3 3 3 2 2 2 2 2 2 2 2 1 1 1 1 1 1
-2 -2 -2 -1 -1 0 1 1 1 2 2 2 2 2 1 0 2 3 3 3 3 3 3 3 3 3 2 2 2 2 2 2 2 2 2 1 1 1 1 1 1 0 0 0
-2 -2 -2 -2 -1 1 1 0 1 1 2 2 2 2 2 2 2 2 3 3 3 3 3 2 2 2 2 2 2 2 2 2 1 1 1 1 1 1 0 0 -0 -0 -0 -0
-2 -1 -2 -1 0 1 1 1 2 2 2 2 2 2 2 2 2 2 2 2 2 2 2 2 2 2 2 1 1 2 1 1 1 1 1 0 0 0 -0 -0 -1 -1 -1 -1
-3 -2 -2 -2 -1 -0 1 1 2 2 2 2 2 2 1 1 1 1 2 2 2 2 2 1 1 1 1 1 1 1 1 1 0 0 0 -0 -0 -0 -1 -1 -1 -1 -1 -2
-2 -3 -3 -2 -1 -1 1 1 2 2 2 2 2 1 1 1 1 1 1 1 1 1 1 1 1 1 1 1 1 0 0 0 -0 -0 -0 -1 -1 -1 -1 -1 -2 -2 -2 -2
-3 -3 -2 -1 -0 -1 0 1 1 1 1 1 1 1 1 1 1 1 1 1 1 1 1 1 0 0 0 0 0 -0 -0 -0 -1 -1 -1 -1 -1 -1 -2 -2 -2 -2 -2 -2
Wind_Speed
1 2 6 9 9 6 4 5 6 6 3 3 8 13 12 8 7 9 9 9 9 10 7 5 6 5 5 5 6 7 7 6 5 4 4 3 3 3 2 2 3 4 4 3
1 6 8 4 3 4 5 6 8 6 2 4 8 13 13 9 9 10 11 11 10 8 6 5 5 5 6 7 7 7 7 7 7 6 4 3 3 2 2 2 2 3 4 4
7 5 3 4 4 5 7 7 7 6 5 3 6 10 9 6 6 7 8 9 8 9 9 7 7 7 6 7 8 7 8 7 7 6 4 3 3 2 2 2 2 2 3 4
5 5 4 5 6 6 8 6 6 5 3 4 1 7 9 6 7 8 8 7 8 8 7 7 7 7 7 7 6 6 7 6 6 7 6 6 5 4 4 3 3 2 3 3
4 2 3 6 7 6 5 2 4 4 4 5 3 5 9 3 6 8 7 7 7 7 7 7 8 8 7 6 6 6 6 6 6 7 7 6 4 3 2 2 3 2 2 2
4 2 3 4 2 4 3 1 0 0 1 6 7 6 8 5 8 7 6 7 6 6 6 6 5 5 4 4 5 5 6 6 6 7 6 7 6 5 5 4 3 3 2 1
4 2 2 2 2 1 2 2 1 2 2 7 4 6 9 8 7 7 7 7 5 5 4 4 4 4 5 6 6 6 6 6 6 7 6 7 7 7 7 6 5 4 2 2
2 4 2 1 3 3 4 5 5 5 5 4 2 7 8 6 5 4 4 4 3 3 3 4 5 5 5 6 7 7 7 6 6 6 6 6 6 5 4 5 5 5 4 4
3 4 2 2 2 5 4 4 3 2 1 3 6 6 8 3 2 2 2 1 2 3 3 4 4 4 5 5 6 7 7 6 6 6 6 5 5 5 5 4 4 3 3 3
3 4 4 2 1 0 4 5 3 3 3 5 6 6 5 4 3 2 3 3 4 3 3 3 3 4 4 4 4 5 5 6 5 5 5 5 5 5 5 4 4 4 3 3
2 3 4 1 4 5 3 3 3 3 3 3 4 6 4 6 5 4 4 4 4 3 3 3 3 3 2 2 3 4 5 4 4 5 4 4 4 4 4 4 4 4 3 4
3 3 3 5 4 3 4 5 6 4 4 3 3 7 4 4 4 4 4 4 3 3 2 2 2 2 2 2 3 4 4 4 5 4 5 5 4 4 4 4 4 3 3 4
4 3 1 4 3 1 2 3 4 2 2 4 4 8 3 2 2 3 3 3 3 2 2 1 1 2 3 3 3 3 3 4 4 4 4 4 4 4 4 4 3 3 3 3
2 4 6 8 6 4 5 6 5 5 4 6 9 11 10 7 6 5 4 3 2 2 2 2 2 3 3 3 3 3 3 3 4 4 5 4 5 5 4 4 3 3 3 3
2 3 5 7 7 6 8 9 9 11 10 10 10 11 13 10 8 6 4 4 3 3 3 3 3 3 3 3 3 3 3 3 4 4 4 4 4 3 3 3 3 3 2 3
1 3 3 5 6 6 9 11 11 12 10 11 12 15 12 9 5 5 5 4 5 5 5 5 4 4 4 4 4 4 3 3 4 4 4 3 3 3 3 3 3 2 2 2
3 3 2 4 4 3 8 10 10 8 8 8 12 13 7 6 6 7 6 6 7 7 6 6 5 6 5 5 5 5 4 3 4 4 4 4 4 4 3 3 3 3 2 2
5 4 2 2 1 8 8 4 7 9 9 10 9 8 6 7 7 6 6 6 7 5 5 5 5 5 4 4 4 4 4 4 4 4 4 4 4 4 3 3 3 3 2 2
7 5 3 2 5 9 9 4 5 7 8 9 11 10 7 4 4 6 4 4 6 5 5 5 5 4 4 4 5 5 4 4 4 5 5 5 5 5 4 4 3 3 2 2
2 4 4 4 4 7 7 3 3 3 6 5 7 8 6 1 3 6 4 3 4 4 3 3 3 2 3 4 4 5 5 5 6 6 5 5 5 5 5 4 3 2 2 3
2 3 6 6 7 9 7 2 4 4 7 4 5 6 5 6 7 6 4 4 4 4 3 3 3 3 4 4 4 5 5 6 6 5 4 4 5 5 5 4 3 3 2 2
6 5 6 5 6 8 2 4 6 6 5 3 3 4 4 5 6 5 4 4 3 3 3 2 2 3 3 4 6 6 6 5 4 4 4 4 4 4 4 4 3 3 3 3
7 7 5 8 8 5 4 6 6 5 6 5 4 4 4 5 5 5 4 4 3 3 3 2 2 3 3 4 6 6 5 4 4 4 5 4 4 3 4 4 4 3 3 3
5 3 4 6 8 7 7 7 6 6 6 6 5 5 4 5 5 5 4 4 3 3 2 2 2 2 3 3 4 5 4 4 5 5 5 4 4 4 3 3 4 4 4 4
6 5 5 8 8 7 7 6 6 6 5 5 5 5 5 4 5 5 4 4 3 3 2 2 2 3 4 3 3 4 4 5 5 5 4 4 4 4 4 4 4 5 5 6
5 6 7 8 7 6 7 6 5 5 6 6 5 5 4 4 5 4 5 4 3 3 3 2 3 3 3 3 3 3 4 5 6 5 4 4 4 4 3 3 3 5 5 7
Wind_Direction
113 151 215 217 212 217 198 211 246 254 250 238 250 261 265 253 246 246 244 239 236 237 238 221 206 196 191 190 187 188 182 179 166 164 168 168 180 180 172 168 167 167 165 161
74 236 235 224 208 221 233 244 260 281 274 245 270 271 265 244 234 236 235 236 233 233 235 224 206 194 192 193 193 191 188 182 179 180 179 170 161 168 170 160 168 174 171 168
203 234 207 197 214 216 238 230 242 260 308 295 296 286 264 253 232 240 237 235 233 225 223 222 213 205 197 196 196 196 192 184 179 170 146 123 108 97 130 168 186 188 185 183
234 250 223 215 226 213 246 232 230 250 272 280 255 281 273 260 263 251 244 237 235 233 226 219 212 207 203 203 193 190 185 180 175 164 164 165 173 184 192 183 183 182 191 188
244 242 218 226 233 211 226 232 215 229 222 272 253 251 277 265 260 257 244 237 235 229 222 219 213 208 204 192 182 180 174 175 173 172 174 175 180 179 155 154 166 175 178 185
260 262 231 226 238 204 189 84 8 221 178 255 227 217 273 237 231 250 247 238 235 229 224 221 212 199 193 178 170 167 168 175 174 174 176 179 178 170 164 174 180 186 184 186
304 277 248 200 188 203 139 131 350 313 247 246 208 219 249 249 234 235 249 248 241 228 216 210 200 192 189 182 178 173 173 179 178 176 181 185 183 179 182 186 190 190 190 206
252 278 250 196 185 191 197 170 185 217 229 270 230 233 249 258 260 251 252 252 247 236 221 211 208 202 197 192 183 178 179 183 178 178 184 185 180 181 189 189 187 196 202 210
202 256 294 267 254 165 171 202 192 165 222 265 257 270 294 282 306 324 332 322 271 253 243 226 215 203 199 195 191 185 182 182 182 181 178 178 178 181 188 188 186 192 199 195
176 260 286 280 124 223 177 157 133 165 203 251 269 261 245 266 266 276 284 280 281 280 265 242 225 211 203 195 186 177 179 182 179 177 181 182 183 187 186 178 183 191 195 182
164 206 292 316 205 204 163 169 177 171 187 196 265 269 231 224 227 236 251 255 264 267 266 251 239 224 200 173 168 172 173 170 173 178 178 176 184 185 177 181 190 192 193 187
185 168 248 254 262 235 200 193 176 190 226 202 229 270 273 234 237 239 258 267 273 269 263 248 228 210 187 179 176 177 175 176 181 176 172 179 181 175 179 191 195 190 196 199
170 156 305 326 321 287 215 200 188 163 164 190 215 264 299 328 309 278 270 291 299 290 283 275 219 208 206 199 189 186 183 182 175 167 168 173 178 180 188 193 193 190 195 203
203 180 198 221 240 217 239 231 204 188 215 229 233 260 290 299 293 293 295 285 278 270 256 245 235 230 220 207 197 194 194 180 171 168 172 183 189 189 191 191 190 193 192 196
162 215 230 251 259 244 243 240 222 219 218 225 246 251 268 273 273 273 274 282 286 284 264 245 239 235 220 213 205 200 198 185 173 172 181 194 191 180 178 181 186 189 190 199
173 213 231 267 264 257 259 249 234 235 232 238 258 268 265 267 267 269 266 268 274 275 264 246 240 232 225 219 212 202 201 194 174 179 189 182 173 172 178 178 174 173 181 187
190 182 207 261 286 306 262 236 217 223 216 207 237 254 270 275 263 254 254 255 259 263 259 243 237 231 225 218 208 201 199 186 176 183 187 179 177 180 184 179 171 179 186 187
189 187 204 248 332 249 251 218 200 215 231 220 236 260 261 258 269 266 253 243 249 249 248 248 243 235 227 213 199 192 184 180 183 185 190 186 181 186 181 176 184 188 188 191
202 186 194 206 246 273 282 242 184 201 254 229 234 256 268 280 306 293 267 230 231 238 242 243 240 232 219 208 192 176 181 184 188 194 197 194 186 185 182 186 193 193 187 200
174 183 188 199 229 248 258 241 183 149 272 250 221 242 253 202 269 273 280 260 258 259 248 237 233 222 218 212 180 174 188 192 204 204 200 194 188 188 192 195 194 192 193 205
164 190 205 218 240 261 258 221 129 179 252 261 223 232 221 218 237 259 284 282 270 265 255 237 220 225 228 201 175 186 195 210 210 195 188 187 190 193 193 188 183 182 189 189
191 191 202 195 228 255 236 144 190 235 277 280 257 235 227 243 260 267 272 275 280 282 270 236 224 240 232 193 184 197 213 214 190 179 182 189 191 191 183 177 184 181 181 192
211 204 205 207 227 259 220 222 248 265 274 275 260 251 230 250 265 272 269 269 275 276 271 254 224 244 239 202 192 204 216 192 178 179 186 188 186 186 182 182 184 183 186 200
251 222 216 254 264 266 268 271 275 271 266 272 272 260 248 255 266 271 266 266 269 276 266 251 223 234 245 219 207 209 204 182 174 184 188 184 183 188 188 192 191 193 200 207
227 201 231 259 276 290 277 257 265 280 282 283 284 264 246 247 261 261 267 266 265 272 260 234 224 236 243 226 217 210 193 176 177 185 187 187 190 190 195 203 207 208 214 213
213 205 213 245 253 246 270 272 272 273 278 275 277 281 270 242 248 262 267 268 267 268 261 250 243 240 245 226 221 211 191 177 176 187 191 191 191 192 196 203 232 239 233 236
Height
1470 1475 1475 1474 1474 1474 1476 1478 1478 1475 1472 1474 1472 1468 1463 1462 1462 1461 1460 1460 1459 1460 1462 1464 1465 1468 1470 1472 1474 1476 1478 1480 1482 1484 1486 1488 1489 1491 1493 1495 1496 1498 1499 1500
1473 1474 1471 1471 1473 1474 1476 1477 1476 1474 1473 1473 1471 1465 1459 1457 1456 1455 1455 1454 1455 1456 1457 1459 1461 1463 1465 1467 1469 1472 1474 1476 1478 1480 1483 1485 1487 1488 1490 1492 1494 1495 1496 1497
1471 1469 1468 1470 1472 1474 1475 1476 1475 1474 1473 1472 1472 1463 1455 1451 1451 1450 1450 1450 1450 1451 1452 1454 1456 1458 1460 1462 1465 1467 1470 1472 1474 1477 1479 1482 1484 1485 1487 1489 1490 1492 1493 1494
1469 1467 1467 1468 1470 1471 1472 1470 1471 1473 1476 1477 1474 1470 1453 1450 1449 1446 1445 1445 1446 1447 1448 1449 1451 1453 1455 1458 1461 1463 1466 1468 1471 1473 1475 1477 1479 1481 1483 1485 1487 1489 1490 1491
1467 1466 1466 1467 1466 1467 1469 1468 1470 1472 1475 1477 1475 1475 1455 1449 1446 1442 1441 1441 1442 1443 1444 1445 1447 1449 1451 1454 1457 1459 1462 1465 1467 1470 1472 1474 1476 1478 1481 1483 1484 1486 1487 1488
1466 1465 1465 1464 1464 1465 1466 1470 1472 1475 1477 1476 1470 1472 1457 1449 1442 1439 1438 1438 1438 1439 1441 1442 1443 1446 1448 1450 1453 1456 1458 1461 1464 1466 1469 1471 1473 1475 1477 1479 1481 1482 1484 1485
1467 1464 1463 1462 1464 1465 1467 1473 1478 1477 1479 1470 1466 1465 1453 1440 1437 1436 1435 1435 1436 1437 1437 1438 1440 1442 1444 1446 1449 1452 1455 1458 1460 1463 1465 1467 1470 1472 1474 1476 1477 1479 1480 1481
1469 1468 1463 1462 1463 1465 1467 1469 1474 1473 1473 1469 1466 1462 1446 1435 1433 1433 1433 1434 1434 1434 1435 1436 1437 1439 1441 1443 1446 1448 1451 1454 1457 1459 1462 1464 1466 1468 1470 1472 1474 1475 1477 1478
1470 1468 1463 1461 1461 1462 1466 1468 1468 1473 1475 1473 1464 1456 1443 1433 1432 1432 1432 1432 1432 1433 1433 1434 1435 1437 1438 1440 1442 1445 1448 1451 1453 1456 1458 1461 1463 1465 1467 1469 1471 1472 1473 1475
1466 1470 1464 1461 1460 1461 1463 1465 1471 1472 1468 1466 1458 1454 1445 1435 1432 1432 1432 1431 1431 1431 1432 1432 1433 1434 1436 1438 1440 1443 1445 1448 1450 1453 1455 1458 1460 1462 1464 1465 1467 1468 1470 1471
1465 1470 1467 1463 1462 1461 1464 1466 1466 1470 1469 1467 1463 1449 1435 1432 1430 1430 1430 1429 1430 1430 1430 1430 1431 1432 1434 1436 1438 1440 1443 1445 1447 1450 1452 1454 1457 1459 1460 1462 1463 1465 1466 1467
1464 1469 1469 1465 1460 1458 1459 1461 1464 1465 1467 1470 1466 1451 1430 1429 1428 1428 1428 1428 1428 1429 1429 1429 1430 1431 1432 1434 1436 1438 1440 1442 1445 1447 1449 1451 1453 1455 1456 1458 1459 1461 1462 1463
1462 1466 1469 1465 1465 1461 1460 1460 1461 1464 1466 1470 1465 1446 1429 1428 1428 1428 1428 1427 1427 1428 1428 1428 1429 1429 1430 1432 1434 1436 1438 1440 1442 1444 1446 1448 1450 1451 1453 1454 1456 1457 1458 1460
1457 1462 1464 1462 1458 1458 1459 1458 1458 1461 1463 1462 1456 1442 1432 1429 1428 1427 1427 1426 1426 1426 1426 1427 1427 1428 1429 1430 1432 1434 1436 1437 1439 1441 1443 1445 1446 1448 1449 1451 1452 1453 1455 1456
1456 1460 1460 1458 1455 1454 1453 1452 1453 1454 1453 1454 1445 1441 1431 1429 1427 1426 1425 1424 1424 1424 1424 1425 1425 1426 1427 1428 1430 1431 1433 1435 1437 1438 1440 1442 1443 1444 1446 1447 1448 1449 1451 1452
1456 1458 1458 1456 1452 1451 1449 1446 1447 1446 1445 1445 1441 1435 1426 1425 1425 1424 1423 1422 1422 1422 1422 1422 1423 1424 1424 1426 1427 1428 1430 1432 1434 1435 1437 1438 1440 1441 1442 1443 1444 1446 1447 1448
1455 1457 1457 1455 1453 1450 1446 1438 1439 1439 1436 1437 1436 1428 1423 1424 1423 1422 1420 1420 1419 1419 1419 1420 1420 1421 1422 1423 1424 1425 1427 1429 1431 1432 1434 1435 1436 1437 1438 1440 1441 1442 1443 1444
1452 1455 1457 1456 1455 1451 1432 1427 1428 1430 1428 1429 1426 1422 1421 1420 1419 1418 1417 1417 1416 1417 1417 1417 1417 1418 1419 1420 1421 1423 1424 1426 1428 1429 1431 1432 1433 1434 1435 1436 1437 1438 1439 1440
1446 1450 1455 1456 1453 1443 1429 1424 1425 1427 1424 1420 1421 1419 1418 1417 1416 1414 1413 1414 1414 1414 1414 1414 1414 1415 1415 1416 1417 1419 1420 1422 1424 1425 1427 1429 1430 1431 1432 1432 1434 1435 1436 1437
1445 1446 1452 1454 1450 1442 1423 1420 1419 1423 1422 1414 1414 1415 1415 1416 1418 1413 1411 1411 1411 1411 1411 1411 1411 1412 1412 1413 1414 1415 1416 1418 1420 1421 1423 1425 1426 1427 1428 1429 1430 1431 1432 1433
1446 1447 1448 1448 1444 1432 1420 1418 1419 1426 1417 1410 1410 1410 1411 1412 1412 1410 1408 1408 1408 1408 1408 1408 1408 1408 1409 1410 1411 1411 1412 1414 1416 1418 1420 1421 1422 1423 1425 1425 1426 1427 1428 1429
1440 1443 1444 1443 1441 1430 1417 1418 1419 1414 1410 1408 1408 1408 1408 1407 1407 1406 1405 1405 1405 1405 1405 1405 1405 1404 1405 1406 1407 1407 1408 1410 1413 1414 1415 1417 1418 1420 1421 1421 1422 1423 1424 1425
1434 1431 1431 1429 1424 1415 1413 1412 1411 1410 1408 1407 1406 1405 1405 1404 1403 1403 1402 1402 1402 1402 1402 1401 1401 1401 1401 1402 1403 1404 1405 1407 1408 1410 1411 1413 1414 1416 1417 1418 1418 1419 1420 1421
1428 1425 1425 1423 1415 1411 1410 1409 1407 1407 1405 1404 1404 1403 1402 1401 1400 1400 1399 1399 1399 1399 1399 1398 1398 1398 1398 1399 1400 1401 1402 1403 1404 1406 1407 1409 1410 1412 1413 1414 1414 1415 1416 1417
1420 1422 1422 1418 1411 1408 1405 1405 1404 1404 1402 1401 1400 1400 1399 1399 1398 1397 1397 1396 1397 1396 1396 1396 1395 1395 1395 1395 1396 1397 1398 1399 1401 1402 1404 1405 1406 1408 1409 1410 1410 1411 1412 1413
1415 1415 1416 1411 1406 1406 1402 1401 1401 1400 1399 1398 1397 1396 1396 1396 1395 1394 1394 1394 1394 1393 1393 1393 1392 1392 1392 1392 1393 1394 1395 1396 1397 1398 1400 1401 1403 1404 1405 1406 1407 1407 1409 1410